Location: Sorbo di Sèrpico
(40.9167°N, 14.8833°E)
Time: 01:55:26
(UTC+00:00)

Daily predictions for brighter satellites

Satellite Brightness Start Highest point End
(mag) Time Altitude Azimuth Time Altitude Azimuth Time Altitude Azimuth
ADEOS II 3.9 00:02:18 10° NE 00:06:08 20° E 00:07:45 18° ESE
Cosmos 2298 Rocket 4.4 00:07:41 50° W 00:08:05 51° WNW 00:13:16 10° N
NOSS 2-2 (D) 4.4 00:03:29 10° NW 00:08:55 88° SW 00:11:38 41° SSE
Cosmos 2084 Rocket 4.4 00:12:47 38° ENE 00:12:47 38° ENE 00:15:21 10° NE
USA 306 3.6 00:11:52 47° NNW 00:11:52 47° NNW 00:15:47 10° NE
Thor Agena Rocket 3.4 00:09:45 10° NNE 00:15:04 90° ENE 00:15:34 74° SSW
USA 307 3.5 00:15:20 51° NNW 00:15:20 51° NNW 00:19:16 10° NE
SL-16 R/B 2.8 00:16:08 39° SE 00:17:03 42° ESE 00:22:22 10° NE
NPP 4.5 00:12:48 10° NNE 00:17:53 41° E 00:19:05 36° SE
ERBS 4.4 00:22:52 25° NNE 00:22:52 25° NNE 00:24:27 10° NNE
Cosmos 1980 4.0 00:20:38 49° W 00:21:34 54° WNW 00:27:08 10° NNE
COSMOS 2455 4.1 00:21:40 26° SE 00:23:10 29° ESE 00:28:16 10° NE
CZ-4 R/B 4.1 00:20:34 10° NNE 00:25:09 55° E 00:25:30 53° ESE
ATLAS 5 CENTAUR R/B 2.9 00:16:55 10° NW 00:24:40 47° W 00:24:40 47° W
Cosmos 1455 Rocket 3.1 00:21:35 10° N 00:26:04 74° E 00:26:09 74° E
CZ-4C R/B 3.4 00:19:09 10° NW 00:26:24 47° WSW 00:27:53 43° SW
Cosmos 332 Rocket 3.8 00:28:23 66° W 00:28:33 66° WNW 00:33:20 10° NNE
Meteor 1-24 Rocket 3.7 00:34:53 52° SSE 00:36:13 75° E 00:41:42 10° NNE
Cosmos 1975 Rocket 3.1 00:39:39 63° WNW 00:39:39 63° WNW 00:44:01 10° N
Meteor 2-10 Rocket 3.6 00:35:00 10° NNW 00:40:33 61° W 00:41:17 56° SW
UNK 4.5 00:40:51 31° SE 00:42:42 49° ENE 00:47:09 10° N
MOS 1 Rocket 4.0 00:44:05 28° SE 00:45:49 43° ENE 00:49:53 10° N
USA 308 4.2 00:44:46 28° WNW 00:45:56 33° NNW 00:49:45 10° NE
Cosmos 839 Rocket 4.4 00:40:08 10° NW 00:46:32 56° WSW 00:49:12 38° S
Cosmos 1025 Rocket 3.0 00:47:03 64° W 00:47:04 64° W 00:51:22 10° N
Cosmos 1455 2.8 00:48:31 10° N 00:52:08 49° E 00:52:38 45° ESE
Cosmos 1269 Rocket 3.9 00:47:51 10° NNW 00:53:10 89° ENE 00:55:07 40° SSE
Meteor 2-5 Rocket 3.8 00:55:38 46° SW 00:57:09 63° WNW 01:02:49 10° N
GP-B 4.3 00:54:22 10° NNW 00:58:07 29° WNW 00:58:07 29° WNW
Lacrosse 5 1.9 00:58:31 48° WSW 00:59:52 72° NW 01:04:58 10° NE
USA 267 4.5 01:02:15 22° W 01:02:15 22° W 01:05:42 10° WNW
CZ-2D R/B 2.1 00:55:39 10° N 01:00:59 69° WNW 01:02:28 47° SW
Cosmos 2154 Rocket 4.3 01:00:08 10° N 01:06:28 66° E 01:11:15 18° SSE
Cosmos 1544 Rocket 3.5 01:08:00 10° NNW 01:12:23 66° W 01:13:10 54° SSW
Cosmos 2237 Rocket 3.8 01:11:28 18° W 01:13:55 24° NW 01:18:30 10° N
SL-16 R/B 2.5 01:14:42 30° S 01:17:51 67° WSW 01:24:05 10° NNW
Helios 1A 3.2 01:16:52 26° SSE 01:19:07 68° ENE 01:23:19 10° N
AQUA 3.8 01:15:34 10° N 01:20:19 67° WNW 01:21:49 42° SW
Lacrosse 5 rocket 1.4 01:21:54 48° W 01:22:42 61° NW 01:26:44 10° NE
SAR-Lupe-2 3.7 01:20:20 10° N 01:23:50 53° WNW 01:24:09 51° W
NOSS 3-3 (A) 4.4 01:26:08 26° S 01:29:01 49° ESE 01:34:58 10° NE
NOSS 3-3 (C) 4.4 01:26:14 25° S 01:29:08 48° ESE 01:35:03 10° NE
Resurs 1-4 Rocket 2.9 01:25:14 10° N 01:30:01 36° WNW 01:31:56 27° WSW
Cosmos 2074 Rocket 4.1 01:24:34 10° NNW 01:30:42 56° W 01:33:59 28° SSW
Cosmos 1943 Rocket 2.3 01:30:16 10° NNW 01:35:49 56° WSW 01:39:28 21° S
Cosmos 2297 3.6 01:30:06 10° NNW 01:35:50 73° WSW 01:41:32 10° SSE
Cosmos 1703 3.1 01:35:52 39° S 01:37:14 85° W 01:41:12 10° N
Cosmos 1295 Rocket 4.5 01:32:30 10° N 01:38:51 76° W 01:43:49 17° S
Cosmos 2184 Rocket 4.4 01:39:38 10° NNW 01:45:30 44° W 01:48:45 24° SW
ADEOS II 2.5 01:41:00 10° N 01:46:03 49° WNW 01:48:40 26° SW
Cosmos 2278 Rocket 4.2 01:44:51 10° W 01:45:23 11° W 01:45:23 11° W
IDEFIX/ARIANE 42P 2.8 01:41:50 10° N 01:47:01 59° WNW 01:49:52 26° SW
Cosmos 1610 Rocket 4.5 01:43:20 10° NNW 01:49:25 64° W 01:54:08 17° S
Cosmos 292 Rocket 4.0 01:48:10 29° SW 01:50:25 54° WNW 01:55:08 10° N
GPS 2-04 Rocket1 4.2 01:50:27 17° SSE 01:50:27 17° SSE 01:52:45 10° ESE
DNEPR-1 R/B 4.1 01:48:16 24° S 01:50:31 50° ESE 01:54:51 10° NE
CBERS-1 4.5 01:47:18 10° NNE 01:52:21 59° E 01:56:47 13° S
Meteor 1-21 Rocket 4.2 01:51:33 19° S 01:55:42 87° W 02:01:19 10° N
Cosmos 2369 Rocket 2.2 01:55:32 10° NNW 02:01:09 89° NE 02:06:45 10° SSE
SL-16 R/B 3.4 01:58:00 17° WSW 02:01:17 29° NW 02:06:10 10° N
IRS-1D 3.6 01:58:43 10° N 02:04:03 70° WNW 02:07:54 18° SSW
EO 1 Del DPAF 4.3 02:01:08 10° NNW 02:04:08 27° WNW 02:05:16 22° WSW
Cosmos 2228 3.1 02:00:04 10° NNW 02:04:21 58° W 02:07:33 17° S
Meteor 1-28 Rocket 4.2 02:03:36 25° WSW 02:04:23 27° W 02:07:38 10° NW
Cosmos 962 Rocket 4.4 01:58:16 10° N 02:04:25 81° W 02:10:31 10° S
OAO 2 Rocket 4.3 02:02:22 21° SSW 02:04:28 29° SSE 02:08:41 10° ESE
Cosmos 2181 Rocket 4.3 01:58:22 10° S 02:04:33 69° E 02:10:41 10° NNE
Cosmos 614 Rocket 4.3 01:59:37 10° NNW 02:04:35 46° WSW 02:09:12 12° S
Cosmos 2251 Rocket 3.4 02:01:24 10° NNW 02:06:41 77° WSW 02:11:57 10° SSE
COSMOS 2455 3.4 02:04:48 19° WSW 02:08:50 46° NW 02:14:39 10° NNE
Cosmos 1656 Rocket 3.6 02:05:06 10° NNW 02:10:32 85° ENE 02:15:58 10° SSE
Cosmos 2058 Rocket 4.1 02:08:00 10° N 02:12:14 46° ENE 02:16:25 10° SSE
[s.n.52708] 3.5 02:16:55 22° SSW 02:18:20 40° SE 02:21:01 10° ENE
[s.n.52707] 3.5 02:17:02 22° SSW 02:18:27 40° SE 02:21:08 10° ENE
[s.n.52703] 3.5 02:17:08 22° SSW 02:18:33 40° SE 02:21:15 10° ENE
[s.n.52705] 3.5 02:17:14 22° SSW 02:18:40 40° SE 02:21:21 10° ENE
Cosmos 1408 3.4 02:15:13 10° S 02:18:45 50° E 02:22:16 10° NNE
[s.n.52706] 3.4 02:17:21 22° SSW 02:18:46 40° SE 02:21:27 10° ENE
[s.n.52701] 3.4 02:17:27 22° SSW 02:18:53 40° SE 02:21:34 10° ENE
[s.n.52704] 3.4 02:17:33 22° SSW 02:18:59 40° SE 02:21:41 10° ENE
[s.n.52699] 3.4 02:17:40 22° SSW 02:19:06 40° SE 02:21:48 10° ENE
[s.n.52702] 3.4 02:17:46 22° SSW 02:19:13 41° SE 02:21:54 10° ENE
[s.n.52697] 3.4 02:17:53 22° SSW 02:19:20 41° SE 02:22:01 10° ENE
[s.n.52700] 3.4 02:17:59 21° SSW 02:19:26 41° SE 02:22:07 10° ENE
[s.n.52695] 3.4 02:18:05 21° SSW 02:19:33 41° SE 02:22:15 10° ENE
[s.n.52698] 3.4 02:18:11 21° SSW 02:19:40 41° SE 02:22:21 10° ENE
[s.n.52693] 3.4 02:18:18 21° SSW 02:19:46 41° SE 02:22:28 10° ENE
[s.n.52696] 3.4 02:18:24 21° SSW 02:19:52 41° SE 02:22:35 10° ENE
[s.n.52691] 3.4 02:18:31 21° SSW 02:19:59 42° SE 02:22:41 10° ENE
[s.n.52689] 3.4 02:18:37 21° SSW 02:20:06 42° SE 02:22:48 10° ENE
[s.n.52694] 3.4 02:18:44 21° SSW 02:20:13 42° SE 02:22:55 10° ENE
[s.n.52692] 3.4 02:18:50 21° SSW 02:20:19 42° SE 02:23:01 10° ENE
[s.n.52687] 3.4 02:18:57 21° SSW 02:20:26 42° SE 02:23:08 10° ENE
[s.n.52685] 3.4 02:19:03 21° SSW 02:20:33 42° SE 02:23:16 10° ENE
[s.n.52690] 3.4 02:19:09 21° SSW 02:20:39 42° SE 02:23:22 10° ENE
[s.n.52688] 3.4 02:19:16 21° SSW 02:20:46 43° SE 02:23:29 10° ENE
[s.n.52683] 3.3 02:19:22 21° SSW 02:20:52 43° SE 02:23:36 10° ENE
[s.n.52686] 3.3 02:19:29 21° SSW 02:20:59 43° SE 02:23:43 10° ENE
[s.n.52681] 3.3 02:19:36 21° SSW 02:21:07 43° SE 02:23:49 10° ENE
[s.n.52679] 3.3 02:19:42 21° SSW 02:21:13 43° SE 02:23:56 10° ENE
[s.n.52684] 3.3 02:19:48 21° SSW 02:21:20 43° SE 02:24:03 10° ENE
[s.n.52682] 3.3 02:19:55 21° SSW 02:21:27 43° SE 02:24:10 10° ENE
[s.n.52677] 3.3 02:20:01 21° SSW 02:21:34 44° SE 02:24:17 10° ENE
[s.n.52680] 3.3 02:20:08 21° SSW 02:21:41 44° SE 02:24:24 10° ENE
[s.n.52675] 3.3 02:20:14 21° SSW 02:21:47 44° SE 02:24:31 10° ENE
[s.n.52678] 3.3 02:20:21 21° SSW 02:21:54 44° SE 02:24:37 10° ENE
[s.n.52673] 3.3 02:20:29 21° SSW 02:22:02 44° SE 02:24:45 10° ENE
[s.n.52676] 3.3 02:20:34 21° SSW 02:22:08 44° SE 02:24:52 10° ENE
[s.n.52671] 3.3 02:20:42 21° SSW 02:22:15 44° SE 02:24:58 10° ENE
[s.n.52669] 3.3 02:20:48 21° SSW 02:22:22 44° SE 02:25:05 10° ENE
[s.n.52674] 3.3 02:20:55 21° SSW 02:22:29 45° SE 02:25:13 10° ENE
[s.n.52672] 3.3 02:21:01 21° SSW 02:22:35 45° SE 02:25:19 10° ENE
[s.n.52667] 3.3 02:21:08 21° SSW 02:22:43 45° SE 02:25:27 10° ENE
[s.n.52665] 3.3 02:21:15 21° SSW 02:22:49 45° SE 02:25:34 10° ENE
[s.n.52670] 3.3 02:21:21 21° SSW 02:22:57 45° SE 02:25:41 10° ENE
[s.n.52668] 3.3 02:21:28 21° SSW 02:23:04 46° SE 02:25:48 10° ENE
[s.n.52666] 3.2 02:21:35 21° SSW 02:23:10 46° SE 02:25:55 10° ENE
[s.n.52663] 3.2 02:21:41 21° SSW 02:23:17 46° SE 02:26:02 10° ENE
[s.n.52662] 3.2 02:21:48 21° SSW 02:23:24 46° SE 02:26:09 10° ENE
[s.n.52664] 3.2 02:21:55 21° SSW 02:23:31 46° SE 02:26:16 10° ENE
[s.n.52661] 3.2 02:22:02 21° SSW 02:23:38 46° SE 02:26:23 10° ENE
[s.n.52660] 3.2 02:22:08 20° SSW 02:23:45 46° SE 02:26:31 10° ENE
[s.n.52656] 3.2 02:22:15 20° SSW 02:23:52 47° SE 02:26:37 10° ENE
[s.n.52658] 3.2 02:22:22 20° SSW 02:24:00 47° SE 02:26:45 10° ENE
[s.n.52659] 3.2 02:22:28 20° SSW 02:24:06 47° SE 02:26:51 10° ENE
[s.n.52657] 3.2 02:22:36 20° SSW 02:24:14 47° SE 02:26:59 10° ENE
Cosmos 1603 3.7 02:19:47 15° SSW 02:24:28 75° WNW 02:30:10 10° NNE
ATLAS 2A CENTAUR R/B 4.4 02:16:01 13° WSW 02:28:28 33° S 02:34:58 10° SE
PAYLOAD A 4.2 02:24:36 10° NNE 02:29:19 66° ESE 02:34:08 10° S
Cosmos 1271 Rocket 4.3 02:28:35 10° NW 02:31:12 18° W 02:32:45 14° WSW
Cosmos 1606 Rocket 4.1 02:31:22 10° NNW 02:35:29 40° W 02:39:32 10° SSW
ALOS 2.3 02:33:48 10° NNE 02:38:29 86° E 02:43:09 10° SSW
CZ-2C R/B 2.5 02:35:32 10° NNE 02:40:41 87° ESE 02:45:39 10° SSW
Lacrosse 5 3.9 02:39:52 10° WNW 02:43:38 20° NNW 02:47:24 10° NNE
Helios 1B rocket 2.9 02:41:20 10° N 02:45:11 42° WNW 02:49:00 10° SW
Cosmos 1420 Rocket 4.1 02:40:09 10° SSW 02:45:19 81° ESE 02:50:31 10° NNE
CZ-2D R/B 4.0 02:42:56 10° NNE 02:46:54 57° E 02:50:46 10° S
Cosmos 2366 rocket 4.0 02:41:49 10° NNW 02:47:54 63° W 02:54:00 10° S
Cosmos 2341 Rocket 4.5 02:42:21 10° NNW 02:48:20 43° W 02:54:17 10° SSW
BREEZE-M DEB (TANK) 3.1 02:47:52 10° WSW 02:52:02 43° NNW 02:54:13 10° NE
Meteor 1-11 4.4 02:46:37 10° SSW 02:52:23 65° WNW 02:58:09 10° N
Okean 1-7 Rocket 3.6 02:49:34 10° S 02:54:00 89° WSW 02:58:26 10° N
Cosmos 1371 Rocket 4.1 02:49:26 10° SSW 02:54:32 60° WNW 02:59:40 10° NNE
Cosmos 407 Rocket 3.7 02:49:26 10° NNW 02:54:34 50° WSW 02:59:36 10° S
SL-8 Rocket 4.4 02:49:07 10° NNW 02:55:06 46° W 03:01:03 10° SSW
Cosmos 1943 4.0 02:50:52 10° SW 02:56:08 38° WNW 03:01:26 10° N
METEOR-M 4.3 02:52:03 10° NNE 02:57:26 78° ESE 03:02:45 10° S
Genesis I 3.3 02:58:19 10° NW 03:02:19 60° WSW 03:06:12 10° SSE
Lacrosse 5 rocket 3.7 03:00:17 10° WNW 03:02:33 14° NNW 03:04:53 10° NNE
Meteor 1-29 2.9 03:01:04 10° N 03:04:17 62° WNW 03:07:30 10° SSW
Cosmos 1140 Rocket 4.1 03:00:37 10° NW 03:05:25 37° WSW 03:10:12 10° SSW
